Location: Hertford
(51.8000°N, 0.0667°W)
Time: 16:23:51
(UTC+00:00)

Lacrosse 4 Rocket - Pass Details

Date: 18 September 2020
Orbit: 543 x 616 km, 68.0° (Epoch: 31 October)

Event Time Altitude Azimuth Distance (km) Brightness Sun altitude
Rises 20:56:54 0° 327° (NNW) 2,717 6.1 -25.0°
Reaches altitude 10° 20:59:15 10° 337° (NNW) 1,822 4.8 -25.3°
Enters shadow 21:02:09 31° 17° (NNE) 983 2.7 -25.6°
